RH
10 11 12 17 53 83 100 100 100 100 100 100 100 100 100 100 100 100 100 100 91 94 95 86 84 96 93 94 89 85 79 76 82 95 100 86 70 64 61 57 62 60 66 66
10 11 13 16 21 44 99 100 100 100 100 100 100 100 100 100 100 100 100 100 100 100 100 97 92 89 98 91 97 100 100 99 87 81 77 75 67 63 59 57 59 59 78 83
12 11 12 14 18 26 61 100 100 100 100 99 100 100 100 100 100 100 100 100 100 100 100 100 100 100 100 100 100 100 100 84 77 70 72 64 65 56 63 56 48 56 58 66
15 13 13 14 16 26 43 82 100 100 100 93 94 100 100 100 100 100 100 100 100 98 88 100 100 100 100 100 100 100 98 76 80 69 65 79 72 63 64 74 60 60 77 69
17 15 16 15 15 19 34 49 96 100 100 100 95 86 100 100 100 100 100 100 100 100 92 100 97 99 100 100 100 87 88 71 81 87 81 89 72 67 67 52 74 74 66 82
18 17 17 17 14 16 29 43 67 100 100 100 100 89 78 86 98 100 100 100 98 98 100 100 100 91 88 86 79 71 77 81 98 80 81 70 62 58 50 52 51 53 62 75
18 19 17 16 14 13 16 34 39 60 100 100 100 100 92 82 76 86 92 91 90 90 94 100 100 93 71 71 66 71 64 62 68 62 52 50 54 54 60 62 79 82 84 87
16 15 15 13 14 15 12 21 36 48 98 100 100 100 100 100 94 88 83 81 83 84 89 77 69 69 66 54 51 50 54 55 58 58 56 56 67 74 76 84 86 96 100 85
14 15 15 14 14 14 15 12 18 42 76 99 100 100 100 100 100 99 96 96 86 78 73 61 60 58 53 54 63 74 67 72 83 84 70 69 89 98 82 77 58 41 42 44
17 16 15 15 17 17 16 15 12 14 36 46 77 100 100 100 100 100 98 95 88 87 82 77 83 76 83 91 98 94 98 94 86 84 82 87 82 63 52 44 42 39 33 28
24 22 20 19 20 21 22 20 15 14 22 26 31 46 100 100 100 100 100 100 99 100 100 100 100 100 100 100 100 99 95 88 76 66 63 63 62 52 40 32 30 24 22 26
26 22 32 32 30 25 24 19 20 24 34 34 40 46 90 100 100 100 100 100 100 100 100 100 100 100 98 94 88 80 70 66 57 63 65 58 44 34 29 27 31 39 38 34
25 26 29 32 43 45 34 30 21 19 29 39 42 56 56 94 100 100 100 100 100 100 100 100 100 94 84 80 74 68 60 58 59 64 52 37 27 25 34 43 46 40 32 28
39 32 32 32 44 82 82 67 67 48 52 57 82 100 100 99 100 100 100 100 100 100 100 96 86 78 75 70 65 56 57 65 52 42 33 32 32 45 50 50 46 41 27 24
45 39 41 36 39 54 73 94 100 100 100 98 97 100 99 100 92 95 100 100 96 91 84 76 79 81 80 64 52 54 64 50 40 34 33 37 48 62 53 43 49 48 32 25
39 42 41 41 46 47 62 70 83 97 100 100 100 100 99 100 100 100 100 100 99 97 93 88 83 81 71 63 62 55 46 37 37 39 39 47 61 57 60 54 50 46 40 33
54 45 43 49 40 47 53 58 70 88 88 100 100 100 100 100 100 100 98 96 98 100 97 84 78 70 59 60 57 58 46 41 40 44 48 60 58 58 62 63 55 45 45 39
67 65 55 52 47 56 51 58 58 55 76 84 92 95 92 99 95 96 99 100 100 99 90 89 78 61 56 60 52 49 44 44 50 51 59 66 61 69 68 58 56 52 51 49
77 84 85 79 72 62 63 68 74 76 69 70 73 76 84 86 92 94 97 93 96 98 98 91 69 63 62 46 53 46 47 58 62 66 68 72 67 70 64 59 58 64 65 60
81 85 89 88 85 89 79 80 98 100 100 95 91 85 85 86 100 100 100 100 100 100 96 83 72 68 47 49 50 52 59 66 72 74 71 72 70 67 66 66 60 60 59 60
73 80 87 95 94 94 91 87 88 98 86 98 96 100 100 100 100 100 100 99 99 100 93 85 69 51 52 53 50 58 64 73 80 72 69 66 68 66 64 65 61 54 49 56
89 91 82 83 90 96 96 97 93 89 84 87 94 95 95 100 99 99 99 100 100 100 98 84 64 51 77 64 54 61 74 76 79 73 66 63 64 66 66 67 61 54 48 52
84 84 96 96 92 87 92 98 99 100 98 89 100 100 100 100 100 100 100 100 100 100 89 80 56 72 80 69 69 74 78 74 69 66 59 58 63 64 68 69 59 56 54 54
81 79 82 82 90 96 94 90 92 91 96 97 88 98 100 99 100 100 100 100 100 94 93 64 66 80 87 83 80 73 80 78 66 64 67 66 67 66 69 68 64 60 57 58
85 88 76 86 91 88 91 94 94 90 91 88 94 98 97 96 100 100 100 100 99 91 69 67 82 86 92 88 83 73 75 78 79 73 74 75 76 74 74 74 70 66 68 71
50 77 85 75 85 92 96 94 91 96 90 88 88 91 96 97 99 100 100 100 97 82 77 89 85 92 98 94 90 79 69 76 74 76 79 80 80 83 84 81 79 78 80 82
Wind_Speed
92 100 107 118 125 131 128 123 116 118 112 111 108 105 100 100 99 96 92 91 86 83 84 79 79 79 79 78 76 76 78 79 79 76 76 82 83 84 83 83 85 87 88 87
87 89 102 115 122 125 126 124 117 114 115 113 110 105 101 102 99 98 93 92 87 82 80 78 79 80 81 80 77 76 74 76 80 82 84 84 87 88 88 88 90 90 88 89
78 83 90 105 114 116 122 126 120 114 112 114 110 107 105 102 101 100 98 95 90 87 82 83 81 81 83 82 81 81 81 82 85 87 88 90 90 90 91 95 95 95 93 92
67 74 80 95 105 113 116 121 121 117 108 113 113 111 107 104 102 99 97 96 94 92 86 86 85 85 84 86 83 85 86 86 88 90 90 91 92 91 93 95 97 94 93 93
61 65 72 84 95 103 112 113 120 120 113 109 110 112 107 105 102 100 97 97 96 94 91 89 85 87 88 87 88 88 88 89 90 92 94 95 95 94 93 94 91 94 97 98
58 62 69 78 87 93 101 110 113 121 116 111 108 108 105 105 103 101 102 100 99 97 95 95 94 93 91 92 91 90 90 92 95 95 95 96 96 92 93 91 93 95 98 99
56 60 66 72 77 83 93 105 109 111 118 112 106 104 106 103 102 103 102 101 100 98 97 97 97 99 95 90 89 90 92 94 95 95 93 92 92 91 93 95 97 98 99 102
49 57 60 66 68 75 85 92 102 101 107 110 105 102 100 95 97 100 100 98 97 94 93 93 91 88 88 88 88 88 88 86 86 87 88 89 91 95 97 98 99 101 104 109
40 44 49 54 60 64 75 84 89 100 101 109 109 101 90 92 93 91 89 86 88 86 81 78 81 80 83 81 81 82 83 84 85 88 89 93 95 95 102 104 108 111 110 109
32 35 40 45 50 55 63 73 81 89 97 104 105 106 89 75 80 86 83 80 82 77 77 76 74 76 79 81 81 82 82 84 87 90 93 98 102 106 105 106 104 102 102 103
28 29 33 38 43 50 57 64 69 77 85 95 99 99 95 79 73 72 72 71 69 69 71 73 76 80 82 82 85 85 89 92 97 104 105 103 102 103 100 96 94 95 94 91
28 28 31 32 33 41 49 54 62 69 75 80 82 84 94 93 84 79 76 75 78 81 84 83 81 86 89 90 89 91 99 98 102 94 94 94 92 91 87 83 81 80 80 83
28 29 30 32 34 36 39 47 55 62 67 70 70 73 78 93 93 90 84 80 81 84 85 86 85 87 88 87 91 97 96 90 86 85 85 85 81 75 71 68 69 71 79 75
25 27 29 32 37 36 37 36 40 46 58 63 60 59 59 66 75 83 85 83 82 83 86 89 89 88 87 87 83 82 80 77 78 78 76 71 67 60 58 62 62 67 68 60
23 25 26 28 36 40 43 45 43 47 48 49 53 55 65 68 70 72 76 81 84 85 86 86 82 80 78 79 79 73 72 73 73 68 62 61 51 51 55 56 53 57 58 58
18 21 24 27 30 37 39 41 45 44 42 43 44 53 57 60 63 64 65 67 69 71 73 76 75 75 75 75 67 68 66 64 60 59 57 50 46 49 48 48 49 52 55 54
16 19 22 26 29 30 34 39 40 44 49 51 51 49 49 51 56 58 59 58 58 57 59 64 66 67 65 53 53 54 57 58 57 55 48 44 48 43 45 45 51 47 45 46
13 15 20 22 26 28 30 31 33 37 40 47 50 54 54 53 54 53 53 53 55 58 56 57 61 60 44 42 44 50 51 50 48 46 42 43 44 43 44 44 45 45 40 38
14 15 16 20 24 26 27 26 26 30 33 37 42 46 50 51 52 53 55 52 51 49 49 51 53 41 39 37 42 45 44 42 41 40 41 44 42 44 44 41 36 34 35 37
17 16 18 18 20 25 29 31 33 32 31 32 32 33 34 35 33 36 40 43 44 44 47 48 41 38 36 36 38 38 39 36 36 36 37 39 40 39 39 34 29 30 33 35
17 20 21 20 21 23 26 34 37 37 40 41 40 39 39 40 41 42 42 43 42 41 43 42 36 34 36 35 33 33 35 33 32 31 31 31 33 32 29 25 26 31 32 30
20 19 20 22 26 26 28 29 34 42 42 43 44 43 43 45 44 41 39 38 39 40 40 38 35 33 35 33 32 29 31 29 29 28 28 28 26 26 24 24 27 29 29 28
24 24 24 24 24 28 33 35 36 37 39 40 39 38 39 39 38 38 38 38 39 40 38 36 32 29 31 27 29 27 28 28 27 25 25 25 25 25 24 24 25 27 27 26
31 30 29 27 27 27 30 34 39 41 41 41 43 45 45 43 41 40 39 38 39 39 35 32 29 25 27 28 28 27 27 28 29 27 25 25 25 26 25 25 26 27 25 25
37 36 35 32 30 29 31 31 32 37 43 46 46 45 45 43 42 40 39 39 39 36 32 28 27 25 27 28 28 29 27 27 30 30 29 29 28 28 27 27 27 27 27 26
42 42 41 38 35 34 32 33 35 34 35 39 44 46 45 44 43 42 41 40 38 34 28 26 26 25 27 28 29 30 28 28 30 32 32 32 31 30 29 30 32 32 31 31
Wind_Direction
213 214 214 215 216 217 217 217 218 223 221 225 226 229 230 234 237 238 240 241 245 248 250 253 255 256 257 259 263 264 266 266 270 275 275 276 278 278 280 283 285 285 285 285
212 212 213 214 215 218 216 218 218 225 224 225 226 227 230 234 237 238 240 241 244 249 252 255 256 258 260 262 265 267 269 270 272 274 274 276 279 279 280 282 284 283 282 282
213 213 212 215 215 216 218 217 219 219 227 226 228 229 230 233 235 238 240 242 245 249 253 255 257 258 259 261 266 266 269 271 274 275 275 276 279 281 282 283 283 282 282 282
212 213 213 215 214 215 218 219 218 221 223 229 228 230 232 234 235 238 240 243 245 249 251 254 257 259 262 262 265 266 268 273 275 276 278 278 279 281 283 285 286 285 284 283
210 212 213 215 215 216 217 219 219 220 223 226 231 231 232 235 237 239 241 244 248 250 252 253 256 259 260 262 264 267 269 273 275 277 278 278 279 280 282 284 281 283 284 284
207 209 212 215 215 215 216 220 221 220 222 227 230 234 234 234 237 240 242 245 247 250 251 254 256 258 259 260 263 267 268 270 272 275 276 277 278 279 282 282 282 282 282 282
208 209 211 215 215 216 216 220 223 223 223 225 230 233 236 239 238 241 243 245 248 251 253 253 255 259 261 261 263 266 269 270 271 272 273 276 277 281 283 283 281 281 282 282
212 214 215 216 216 215 217 220 222 223 224 224 228 233 235 237 241 244 245 247 249 253 254 257 258 258 260 264 266 267 268 270 271 272 275 277 280 279 280 281 282 280 279 279
218 217 218 219 220 218 219 220 221 223 223 226 227 229 235 237 239 243 245 247 251 256 258 260 260 261 264 263 263 264 267 268 271 273 275 277 277 276 278 280 282 285 286 286
235 225 222 220 222 222 219 220 222 223 225 227 228 229 230 233 236 240 242 244 249 252 255 255 256 259 258 260 260 263 264 267 270 272 275 276 278 282 284 286 287 288 286 284
230 229 230 226 221 222 223 223 222 224 226 229 228 230 228 229 230 232 235 237 240 241 243 246 250 250 254 257 260 262 266 270 274 278 281 282 282 285 287 289 288 286 287 286
228 221 221 222 222 218 220 221 222 224 226 229 230 228 228 228 229 231 233 236 238 243 248 251 256 257 261 264 267 273 274 277 281 281 282 283 287 287 288 288 287 287 285 285
227 224 221 215 212 219 221 221 224 223 226 229 231 228 229 229 232 235 238 241 244 249 252 255 257 262 267 269 271 274 278 278 279 280 284 287 286 287 287 287 284 282 284 285
237 232 222 213 207 209 216 220 221 223 226 229 228 226 227 230 233 236 239 242 246 250 253 257 262 267 269 271 274 276 278 280 281 285 286 284 286 288 287 282 284 287 295 297
239 236 230 215 211 208 210 214 219 220 224 227 230 227 226 228 232 237 241 244 247 251 255 260 263 265 269 272 275 279 279 282 283 281 284 286 286 279 283 288 292 302 309 314
230 231 228 221 212 211 212 215 212 214 215 217 221 227 231 233 234 237 240 244 249 254 257 262 264 265 268 271 276 277 279 281 283 284 286 286 277 280 286 291 295 304 315 320
230 229 224 221 217 215 217 215 214 217 218 217 217 222 226 229 232 236 240 245 248 249 251 257 263 267 272 276 274 276 278 279 282 285 286 277 277 282 289 295 302 311 318 327
212 220 223 222 219 218 219 220 220 218 217 222 224 225 228 228 234 237 239 240 242 249 254 262 268 273 271 269 272 275 278 282 284 287 284 278 281 285 291 298 304 311 319 328
220 209 215 218 220 219 216 214 213 217 220 221 223 227 230 233 236 239 241 244 247 253 257 263 268 270 269 270 277 279 283 287 286 288 285 277 283 285 294 301 307 312 323 330
222 219 212 212 217 222 220 213 208 208 211 213 214 217 221 222 223 226 229 235 243 249 258 262 267 269 273 279 282 286 290 287 287 284 285 281 284 289 293 301 305 314 319 324
222 221 221 217 213 217 219 219 216 213 217 217 216 215 218 221 225 230 233 239 247 250 256 263 266 271 281 284 288 293 292 291 289 285 287 281 284 289 290 295 309 318 323 325
216 219 224 225 223 218 217 219 219 220 223 225 224 225 226 226 230 234 234 234 242 251 256 262 268 277 290 294 296 296 294 296 294 290 287 287 285 285 291 302 312 320 324 331
222 223 215 219 226 224 224 221 219 219 219 215 214 214 216 217 220 225 231 239 245 248 256 263 270 283 287 296 299 301 297 295 296 296 290 286 285 288 294 301 313 318 321 329
231 226 226 221 219 222 227 225 225 223 221 220 218 216 219 221 225 229 236 239 241 248 256 263 276 281 291 299 301 298 296 290 290 293 295 292 289 290 292 299 308 311 317 328
234 230 230 225 227 225 223 225 230 227 226 223 221 222 224 225 228 231 230 234 242 250 254 265 275 282 293 300 302 301 298 292 286 287 289 289 289 292 292 294 299 305 314 322
236 236 233 230 226 226 227 226 227 229 230 227 225 224 226 227 225 223 226 234 243 248 255 265 273 283 294 303 308 306 300 294 289 284 283 286 287 290 288 288 291 298 306 312